Branson, MO

7:38 PM CDT on April 23, 2017 (GMT -0500)
Branson

Weather History for KBBG - December, 2012

Change the Weather History Date:

Saturday, December 1, 2012

  Actual Average (KHRO) Record (KHRO)
Temperature  
Mean Temperature 59 °F -  
Max Temperature 68 °F 52 °F 73 °F (1970)
Min Temperature 50 °F 33 °F 11 °F (1910)
Degree Days  
Heating Degree Days 6    
Growing Degree Days 9 (Base 50)    
Moisture  
Dew Point 54 °F    
Average Humidity 81    
Maximum Humidity 100    
Minimum Humidity 60    
Precipitation  
Precipitation 0.00 in - - ()
Sea Level Pressure  
Sea Level Pressure 30.03 in    
Wind  
Wind Speed 7 mph (SSE)    
Max Wind Speed 20 mph    
Max Gust Speed 34 mph    
Visibility 8 miles    
Events      
Averages and records for this station are not official NWS values.
T = Trace of Precipitation, MM = Missing Value Source: NWS Daily Summary

Daily Weather History Graph

Daily Weather History Graph

Search for Another Location

Airport or City:

Trip Planner

Search our weather history database for the weather conditions in past years. The results will help you decide how hot, cold, wet, or windy it might be!

Date:

Astronomy

Dec. 01, 2012 Rise Set
Actual Time 7:06 AM CST 4:57 PM CST
Civil Twilight 6:38 AM CST 5:25 PM CST
Nautical Twilight 6:06 AM CST 5:57 PM CST
Astronomical Twilight 5:35 AM CST 6:28 PM CST
Moon 7:46 PM CST (12/1) 9:20 AM CST (12/1)
Length of Visible Light 10h 47m
Length of Day
9h 50m
Waning Gibbous, 91% of the Moon is Illuminated
Dec 1
Waning Gibbous
Dec 6
Last Quarter
Dec 13
New
Dec 19
First Quarter
Dec 28
Full

Hourly Weather History & Observations

Time (CST) Temp. Dew Point Humidity Pressure Visibility Wind Dir Wind Speed Gust Speed Precip Events Conditions
12:15 AM 53.6 °F 50.0 °F 88% 30.09 in 7.0 mi SSE 4.6 mph - N/A   Partly Cloudy
12:35 AM 53.6 °F 50.0 °F 88% 30.09 in 7.0 mi SE 4.6 mph - N/A   Scattered Clouds
12:55 AM 51.8 °F 48.2 °F 88% 30.09 in 6.0 mi SE 4.6 mph - N/A   Mostly Cloudy
1:15 AM 51.8 °F 50.0 °F 94% 30.09 in 6.0 mi SE 3.5 mph - N/A   Overcast
1:35 AM 50.0 °F 50.0 °F 100% 30.10 in 7.0 mi SSE 3.5 mph - N/A   Mostly Cloudy
1:55 AM 53.6 °F 51.8 °F 94% 30.10 in 7.0 mi SSE 3.5 mph - N/A   Overcast
2:15 AM 53.6 °F 51.8 °F 94% 30.10 in 6.0 mi ESE 5.8 mph - N/A   Overcast
2:35 AM 53.6 °F 51.8 °F 94% 30.09 in 7.0 mi SE 5.8 mph - N/A   Overcast
2:55 AM 55.4 °F 51.8 °F 88% 30.09 in 8.0 mi SE 5.8 mph - N/A   Overcast
3:15 AM 53.6 °F 51.8 °F 94% 30.09 in 7.0 mi ESE 6.9 mph - N/A   Mostly Cloudy
3:35 AM 53.6 °F 50.0 °F 88% 30.08 in 6.0 mi ESE 8.1 mph - N/A   Partly Cloudy
3:55 AM 53.6 °F 50.0 °F 88% 30.07 in 5.0 mi ESE 8.1 mph - N/A   Clear
4:15 AM 51.8 °F 50.0 °F 94% 30.07 in 5.0 mi SE 8.1 mph - N/A   Clear
4:35 AM 53.6 °F 50.0 °F 88% 30.07 in 5.0 mi SE 6.9 mph - N/A   Clear
4:55 AM 51.8 °F 51.8 °F 100% 30.07 in 5.0 mi SE 8.1 mph - N/A   Clear
5:15 AM 53.6 °F 51.8 °F 94% 30.06 in 5.0 mi SE 9.2 mph - N/A   Clear
5:35 AM 53.6 °F 51.8 °F 94% 30.06 in 5.0 mi SE 10.4 mph - N/A   Clear
6:50 AM 53.6 °F 51.8 °F 94% 30.05 in 6.0 mi SE 10.4 mph - N/A   Mostly Cloudy
7:45 AM 53.6 °F 53.6 °F 100% 30.05 in 5.0 mi SSE 10.4 mph - N/A   Mostly Cloudy
8:50 AM 59.0 °F 55.4 °F 88% 30.06 in 8.0 mi South 9.2 mph - N/A   Overcast
9:53 AM 62.6 °F 55.4 °F 77% 30.06 in 10.0 mi South 11.5 mph 17.3 mph N/A   Overcast
10:45 AM 64.4 °F 55.4 °F 73% 30.04 in 10.0 mi South 15.0 mph 25.3 mph N/A   Overcast
11:45 AM 64.4 °F 55.4 °F 73% 30.02 in 10.0 mi South 12.7 mph 20.7 mph N/A   Overcast
12:53 PM 68.0 °F 55.4 °F 64% 29.98 in 10.0 mi South 11.5 mph 19.6 mph N/A   Overcast
1:48 PM 68.0 °F 55.4 °F 64% 29.96 in 10.0 mi South 13.8 mph 25.3 mph N/A   Mostly Cloudy
2:52 PM 68.0 °F 53.6 °F 60% 29.95 in 10.0 mi South 15.0 mph 28.8 mph N/A   Overcast
3:50 PM 68.0 °F 53.6 °F 60% 29.94 in 10.0 mi South 19.6 mph 34.5 mph N/A   Overcast
4:45 PM 66.2 °F 55.4 °F 68% 29.94 in 10.0 mi South 12.7 mph 18.4 mph N/A   Overcast
5:55 PM 64.4 °F 55.4 °F 73% 29.94 in 10.0 mi South 12.7 mph 20.7 mph N/A   Mostly Cloudy
6:52 PM 64.4 °F 55.4 °F 73% 29.94 in 10.0 mi South 13.8 mph 20.7 mph N/A   Mostly Cloudy
7:51 PM 64.4 °F 55.4 °F 73% 29.97 in 10.0 mi South 12.7 mph 17.3 mph N/A   Scattered Clouds
8:15 PM 66.2 °F 55.4 °F 68% 29.98 in 10.0 mi South 5.8 mph - N/A   Partly Cloudy
8:35 PM 66.2 °F 55.4 °F 68% 29.98 in 10.0 mi South 10.4 mph 16.1 mph N/A   Scattered Clouds
8:46 PM 66.2 °F 55.4 °F 68% 29.98 in 10.0 mi South 9.2 mph 16.1 mph N/A   Scattered Clouds
8:55 PM 64.4 °F 55.4 °F 73% 29.98 in 10.0 mi South 4.6 mph - N/A   Mostly Cloudy
9:15 PM 64.4 °F 55.4 °F 73% 29.99 in 10.0 mi South 8.1 mph - N/A   Mostly Cloudy
9:35 PM 66.2 °F 55.4 °F 68% 29.99 in 10.0 mi South 5.8 mph - N/A   Mostly Cloudy
9:55 PM 66.2 °F 57.2 °F 73% 29.99 in 10.0 mi South 8.1 mph - N/A   Mostly Cloudy
10:15 PM 66.2 °F 57.2 °F 73% 29.99 in 10.0 mi South 6.9 mph - N/A   Overcast
10:35 PM 66.2 °F 57.2 °F 73% 29.99 in 10.0 mi South 6.9 mph - N/A   Mostly Cloudy
10:55 PM 66.2 °F 57.2 °F 73% 29.99 in 10.0 mi South 8.1 mph - N/A   Scattered Clouds
11:15 PM 64.4 °F 57.2 °F 77% 29.99 in 10.0 mi South 6.9 mph - N/A   Clear
11:35 PM 64.4 °F 57.2 °F 77% 29.99 in 10.0 mi South 6.9 mph - N/A   Clear
11:55 PM 64.4 °F 57.2 °F 77% 29.99 in 10.0 mi South 5.8 mph - N/A   Clear